Location: Fontevrault
(47.1823°N, 0.0493°E)
Time: 02:36:48
(UTC+00:00)

Meteor 1-21 Rocket - Pass Details

Date: 27 October 2021
Orbit: 834 x 907 km, 81.2° (Epoch: 07 December)

Event Time Altitude Azimuth Distance (km) Brightness Sun altitude
Rises 18:51:36 0° 332° (NNW) 3,529 7.9 -21.0°
Reaches altitude 10° 18:55:26 10° 307° (NW) 2,591 7.5 -21.7°
Maximum altitude 18:58:05 13° 280° (W) 2,355 7.6 -22.1°
Drops below altitude 10° 19:00:44 10° 253° (WSW) 2,589 7.7 -22.6°
Sets 19:04:36 0° 228° (SW) 3,524 8.0 -23.2°
